Regional Weather Roundup
Issued by NWS

Home | Current Version | Previous Version | Text Only | Print | Product List | Glossary On
Versions: 1 2 3 4 5 6 7 8 9 10 11 12 13 14 15 16 17 18 19 20 21 22 23 24 25 26 27 28 29 30 31 32 33 34 35 36 37 38 39 40 41 42 43 44 45 46 47 48 49 50
000
ASUS43 KLMK 190910
RWRKY
KENTUCKY REGIONAL WEATHER ROUNDUP
NATIONAL WEATHER SERVICE LOUISVILLE KY
500 AM EDT SUN APR 19 2015

NOTE "FAIR" INDICATES FEW OR NO CLOUDS BELOW 12,000 FEET
WITH NO SIGNIFICANT WEATHER AND/OR OBSTRUCTIONS TO VISIBILITY.

KYZ001>023-026-027-061>063-070>075-191000-
WESTERN AND SOUTH CENTRAL KENTUCKY

CITY           SKY/WX    TMP DP  RH WIND       PRES   REMARKS
PADUCAH        LGT RAIN  65  62  90 E5        29.71F
HENDERSON      CLOUDY    61  54  77 E8        29.75F
OWENSBORO      CLOUDY    65  54  67 E3        29.76F
HOPKINSVILLE   DRIZZLE   64  63  95 E3        29.74F
BOWLING GREEN  CLOUDY    67  60  78 E5        29.77F
GLASGOW        LGT RAIN  66  60  81 SE3       29.78F
$$

KYZ024-025-028>034-038-045-046-053-191000-
NORTH CENTRAL KENTUCKY

CITY           SKY/WX    TMP DP  RH WIND       PRES   REMARKS
LOUISVILLE/SDF CLOUDY    69  46  43 E8        29.81S
LOUISVILLE/LOU CLOUDY    69  45  41 E7        29.82S
FORT KNOX      CLOUDY    65  49  55 E7        29.78F
$$

KYZ035>037-039>044-047>052-055>060-089>105-191000-
NORTHEAST KENTUCKY

CITY           SKY/WX    TMP DP  RH WIND       PRES   REMARKS
LEXINGTON      CLOUDY    65  46  50 E7        29.85F
COVINGTON      CLOUDY    64  45  49 E13       29.86F
FRANKFORT      CLOUDY    64  46  52 E8        29.83F
$$

KYZ054-064>069-076>088-106>120-191000-
SOUTHEAST KENTUCKY

CITY           SKY/WX    TMP DP  RH WIND       PRES   REMARKS
JACKSON        CLOUDY    65  45  48 E5        29.88F
LONDON         CLOUDY    65  56  72 CALM      29.86F
SOMERSET       DRIZZLE   61  61 100 CALM      29.85F
MIDDLESBORO    CLOUDY    61  60  96 CALM      29.87F
MONTICELLO     CLOUDY    65  63  93 NE5       29.86F
$$




USA.gov is the U.S. government's official web portal to all federal, state and local government web resources and services.